When you browse on this site, cookies collect data to enhance your experience and personalize the content and advertising you see.
Visit our Privacy Policy to learn more. By continuing to use the site, you agree to this use of cookies and data.
  • In United Kingdom
  • List of Countries
  • For 7 days
  • Water Temperature
  • Weather Map
  • Weather Widgets
  • user-avatar
    Login

    Hourly Weather Brisbane

    Today, 13 December, Friday

    Time Temperature Precipitation Wind Pressure Humidity
    00:00 +24°C° 0 mm 2 mps 757 mmHg 81%
    01:00 +24°C° 0 mm 1 mps 756 mmHg 79%
    02:00 +24°C° 0 mm 1 mps 756 mmHg 78%
    03:00 +24°C° 0 mm 1 mps 756 mmHg 78%
    04:00 +23°C° 0 mm 1 mps 756 mmHg 77%
    05:00 +25°C° 0 mm 1 mps 756 mmHg 72%
    06:00 +26°C° 0 mm 1 mps 757 mmHg 67%
    07:00 +28°C° 0 mm 1 mps 757 mmHg 62%
    08:00 +29°C° 0 mm 1 mps 757 mmHg 57%
    09:00 +31°C° 0 mm 2 mps 757 mmHg 52%
    10:00 +34°C° 0 mm 2 mps 757 mmHg 47%
    11:00 +31°C° 0.2 mm 3 mps 756 mmHg 54%
    12:00 +30°C° 0.2 mm 4 mps 756 mmHg 61%
    13:00 +29°C° 0.2 mm 4 mps 756 mmHg 68%
    14:00 +28°C° 0.2 mm 4 mps 755 mmHg 68%
    15:00 +28°C° 0.2 mm 4 mps 755 mmHg 69%
    16:00 +28°C° 0.2 mm 4 mps 755 mmHg 69%
    17:00 +27°C° 0.3 mm 4 mps 755 mmHg 73%
    18:00 +26°C° 0.3 mm 4 mps 756 mmHg 77%
    19:00 +25°C° 0.3 mm 4 mps 756 mmHg 82%
    20:00 +25°C° 0.3 mm 3 mps 757 mmHg 83%
    21:00 +25°C° 0.3 mm 2 mps 757 mmHg 84%
    22:00 +25°C° 0.3 mm 2 mps 758 mmHg 85%
    23:00 +24°C° 0.1 mm 2 mps 757 mmHg 85%

    Tomorrow, 14 December, Saturday

    Time Temperature Precipitation Wind Pressure Humidity
    00:00 +24°C° 0.1 mm 2 mps 757 mmHg 86%
    01:00 +24°C° 0.1 mm 2 mps 756 mmHg 86%
    02:00 +24°C° 0.1 mm 2 mps 756 mmHg 86%
    03:00 +24°C° 0.1 mm 2 mps 756 mmHg 86%
    04:00 +24°C° 0.1 mm 2 mps 756 mmHg 86%
    05:00 +25°C° 0 mm 2 mps 756 mmHg 82%
    06:00 +25°C° 0 mm 2 mps 757 mmHg 79%
    07:00 +26°C° 0 mm 2 mps 757 mmHg 75%
    08:00 +28°C° 0 mm 2 mps 757 mmHg 69%
    09:00 +29°C° 0 mm 2 mps 757 mmHg 63%
    10:00 +31°C° 0 mm 3 mps 756 mmHg 57%
    11:00 +31°C° 0.1 mm 3 mps 756 mmHg 55%
    12:00 +33°C° 0.1 mm 3 mps 755 mmHg 54%
    13:00 +33°C° 0.1 mm 3 mps 755 mmHg 52%
    14:00 +33°C° 0.2 mm 4 mps 754 mmHg 55%
    15:00 +32°C° 0.2 mm 4 mps 754 mmHg 58%
    16:00 +30°C° 0.2 mm 5 mps 753 mmHg 61%
    17:00 +29°C° 0 mm 4 mps 754 mmHg 66%
    18:00 +28°C° 0 mm 4 mps 754 mmHg 71%
    19:00 +27°C° 0 mm 3 mps 755 mmHg 76%
    20:00 +26°C° 0 mm 3 mps 755 mmHg 80%
    21:00 +26°C° 0 mm 3 mps 756 mmHg 83%
    22:00 +25°C° 0 mm 2 mps 756 mmHg 86%
    23:00 +25°C° 0 mm 2 mps 756 mmHg 87%

    Day after tomorrow, 15 December, Sunday

    Time Temperature Precipitation Wind Pressure Humidity
    00:00 +25°C° 0 mm 2 mps 756 mmHg 88%
    01:00 +24°C° 0 mm 1 mps 756 mmHg 89%
    02:00 +24°C° 0 mm 1 mps 756 mmHg 89%
    03:00 +24°C° 0 mm 1 mps 755 mmHg 90%
    04:00 +24°C° 0 mm 1 mps 755 mmHg 90%
    05:00 +25°C° 0 mm 1 mps 756 mmHg 84%
    06:00 +26°C° 0 mm 1 mps 756 mmHg 78%
    07:00 +27°C° 0 mm 1 mps 757 mmHg 73%
    08:00 +30°C° 0 mm 2 mps 756 mmHg 63%
    09:00 +32°C° 0 mm 2 mps 756 mmHg 53%
    10:00 +35°C° 0 mm 2 mps 756 mmHg 43%
    11:00 +36°C° 0 mm 3 mps 755 mmHg 41%
    12:00 +37°C° 0 mm 3 mps 755 mmHg 39%
    13:00 +38°C° 0 mm 4 mps 754 mmHg 36%
    14:00 +36°C° 0 mm 5 mps 753 mmHg 42%
    15:00 +35°C° 0 mm 5 mps 753 mmHg 47%
    16:00 +34°C° 0 mm 6 mps 753 mmHg 53%
    17:00 +32°C° 0 mm 6 mps 753 mmHg 59%
    18:00 +30°C° 0 mm 5 mps 753 mmHg 66%
    19:00 +28°C° 0 mm 5 mps 754 mmHg 73%
    20:00 +27°C° 0 mm 4 mps 754 mmHg 75%
    21:00 +27°C° 0 mm 4 mps 755 mmHg 77%
    22:00 +26°C° 0 mm 3 mps 755 mmHg 80%
    23:00 +26°C° 0 mm 3 mps 755 mmHg 81%

    16 December, Monday

    Time Temperature Precipitation Wind Pressure Humidity
    00:00 +26°C° 0 mm 2 mps 755 mmHg 82%
    01:00 +25°C° 0 mm 2 mps 754 mmHg 84%
    02:00 +25°C° 0 mm 2 mps 754 mmHg 84%
    03:00 +25°C° 0 mm 2 mps 754 mmHg 84%
    04:00 +24°C° 0 mm 2 mps 754 mmHg 85%
    05:00 +26°C° 0 mm 2 mps 754 mmHg 78%
    06:00 +27°C° 0 mm 2 mps 755 mmHg 71%
    07:00 +28°C° 0 mm 2 mps 755 mmHg 65%
    08:00 +32°C° 0 mm 2 mps 755 mmHg 51%
    09:00 +36°C° 0 mm 2 mps 755 mmHg 37%
    10:00 +39°C° 0 mm 2 mps 755 mmHg 24%
    11:00 +41°C° 0 mm 2 mps 754 mmHg 21%
    12:00 +42°C° 0 mm 2 mps 754 mmHg 17%
    13:00 +43°C° 0 mm 2 mps 753 mmHg 14%
    14:00 +42°C° 0 mm 4 mps 753 mmHg 21%
    15:00 +39°C° 0 mm 6 mps 753 mmHg 27%
    16:00 +35°C° 0 mm 7 mps 753 mmHg 33%
    17:00 +33°C° 0 mm 7 mps 754 mmHg 42%
    18:00 +30°C° 0 mm 7 mps 756 mmHg 51%
    19:00 +27°C° 0 mm 7 mps 757 mmHg 60%
    20:00 +26°C° 0 mm 7 mps 758 mmHg 62%
    21:00 +24°C° 0 mm 6 mps 759 mmHg 63%
    22:00 +23°C° 0 mm 6 mps 760 mmHg 64%
    23:00 +23°C° 0 mm 6 mps 760 mmHg 65%

    17 December, Tuesday

    Time Temperature Precipitation Wind Pressure Humidity
    00:00 +22°C° 0 mm 5 mps 760 mmHg 66%
    01:00 +22°C° 0 mm 5 mps 759 mmHg 68%
    02:00 +22°C° 0 mm 5 mps 759 mmHg 68%
    03:00 +21°C° 0 mm 5 mps 759 mmHg 69%
    04:00 +21°C° 0 mm 5 mps 759 mmHg 70%
    05:00 +22°C° 0 mm 5 mps 760 mmHg 65%
    06:00 +22°C° 0 mm 5 mps 761 mmHg 61%
    07:00 +23°C° 0 mm 5 mps 761 mmHg 56%
    08:00 +25°C° 0 mm 5 mps 761 mmHg 50%
    09:00 +27°C° 0 mm 5 mps 761 mmHg 45%
    10:00 +28°C° 0 mm 6 mps 761 mmHg 39%
    11:00 +29°C° 0 mm 6 mps 761 mmHg 37%
    12:00 +29°C° 0 mm 6 mps 761 mmHg 35%
    13:00 +30°C° 0 mm 7 mps 760 mmHg 34%
    14:00 +29°C° 0 mm 7 mps 760 mmHg 35%
    15:00 +28°C° 0 mm 6 mps 760 mmHg 37%
    16:00 +28°C° 0 mm 6 mps 760 mmHg 38%
    17:00 +26°C° 0 mm 6 mps 761 mmHg 46%
    18:00 +25°C° 0 mm 5 mps 761 mmHg 53%
    19:00 +22°C° 0 mm 5 mps 762 mmHg 61%
    20:00 +21°C° 0 mm 4 mps 762 mmHg 65%
    21:00 +21°C° 0 mm 4 mps 762 mmHg 69%
    22:00 +20°C° 0 mm 4 mps 763 mmHg 73%
    23:00 +20°C° 0 mm 4 mps 762 mmHg 75%

    18 December, Wednesday

    Time Temperature Precipitation Wind Pressure Humidity
    00:00 +20°C° 0 mm 4 mps 762 mmHg 77%
    01:00 +19°C° 0 mm 3 mps 762 mmHg 78%
    02:00 +19°C° 0 mm 3 mps 762 mmHg 79%
    03:00 +18°C° 0 mm 3 mps 761 mmHg 79%
    04:00 +18°C° 0 mm 3 mps 761 mmHg 80%
    05:00 +19°C° 0 mm 3 mps 762 mmHg 74%
    06:00 +20°C° 0 mm 3 mps 762 mmHg 68%
    07:00 +22°C° 0 mm 3 mps 763 mmHg 62%
    08:00 +25°C° 0 mm 3 mps 762 mmHg 55%
    09:00 +26°C° 0 mm 4 mps 762 mmHg 48%
    10:00 +28°C° 0 mm 4 mps 762 mmHg 41%
    11:00 +29°C° 0 mm 4 mps 762 mmHg 39%
    12:00 +30°C° 0 mm 4 mps 762 mmHg 36%
    13:00 +30°C° 0 mm 4 mps 761 mmHg 34%
    14:00 +30°C° 0 mm 4 mps 761 mmHg 36%
    15:00 +29°C° 0 mm 4 mps 761 mmHg 37%
    16:00 +29°C° 0 mm 4 mps 760 mmHg 39%
    17:00 +27°C° 0 mm 4 mps 761 mmHg 46%
    18:00 +25°C° 0 mm 3 mps 761 mmHg 54%
    19:00 +22°C° 0 mm 3 mps 762 mmHg 61%
    20:00 +23°C° 0 mm 2 mps 762 mmHg 64%
    21:00 +21°C° 0 mm 2 mps 762 mmHg 68%
    22:00 +21°C° 0 mm 2 mps 763 mmHg 71%
    23:00 +20°C° 0 mm 2 mps 762 mmHg 72%
    Show more